Home   Weather   Kløfta   Past weeks

Flag for Norway Past Weather in Kløfta, Norway — Yesterday and Last 2 Weeks

Now
64 °F

Scattered clouds.


Feels Like: 64 °F
Forecast: 56 / 65 °F
Wind: 12 mph from South

Location: Oslo Gardermoen Airport

Current Time: Aug 17, 2017 at 1:30:05 pm

Latest Report: Aug 17, 2017 at 12:50 pm


Visibility: N/A

Pressure: 30.01 "Hg

Humidity: 52%

Dew Point: 46 °F

Location of KløftaLocation

Past Weather in Kløfta — Graph

°F

Kløfta Temperature Yesterday

Maximum temperature yesterday: 70 °F (at 4:20 pm)
Minimum temperature yesterday: 55 °F (at 12:20 am)
Average temperature yesterday: 61 °F

High & Low Weather Summary for the Past Weeks

 TemperatureHumidityPressure
High72 °F (Aug 11, 3:20 pm)100% (Aug 5, 6:20 am)30.15 "Hg (Aug 5, 6:20 am)
Low43 °F (Aug 14, 5:50 am)26% (Aug 13, 5:50 pm)29.36 "Hg (Aug 4, 1:20 pm)
Average58 °F74%29.82 "Hg
* Reported Aug 2 11:20 am — Aug 17 11:50 am, Kløfta. Weather by CustomWeather, © 2017

Note: Actual official high and low records may vary slightly from our data, if they occured in-between our weather recording intervals... More about our weather records

Advertising

Kløfta Weather History for the Previous 24 Hours

Scroll right to see more
 ConditionsComfort  
Time TempWeatherWind HumidityBarometerVisibility
11:50 am
Thu, Aug 17
63 °FScattered clouds.13 mph52%30.04 "HgN/A
11:20 am63 °FScattered clouds.14 mph56%30.04 "HgN/A
10:50 am61 °FScattered clouds.8 mph72%30.04 "HgN/A
10:20 am59 °FScattered clouds.9 mph72%30.04 "HgN/A
9:50 am59 °FPartly sunny.10 mph72%30.04 "HgN/A
9:20 am57 °FPartly sunny.9 mph82%30.04 "HgN/A
8:50 am55 °FPartly sunny.10 mph88%30.04 "HgN/A
8:20 am55 °FPartly sunny.7 mph88%30.04 "HgN/A
7:50 am55 °FPartly sunny.7 mph88%30.04 "HgN/A
7:20 am55 °FPartly sunny.7 mph88%30.04 "HgN/A
6:50 am55 °FMore clouds than sun.6 mph88%30.04 "HgN/A
6:20 am55 °FBroken clouds.5 mph88%30.04 "HgN/A
5:50 am54 °FMore clouds than sun.5 mph100%30.04 "HgN/A
5:20 am54 °FFog.1 mph94%30.04 "HgN/A
4:50 am54 °FFog.1 mph94%30.04 "Hg5 mi
4:20 am54 °FMostly cloudy.1 mph94%30.04 "Hg6 mi
3:50 am54 °FMostly cloudy.No wind94%30.04 "Hg4 mi
3:20 am54 °FFog.5 mph94%30.04 "Hg2 mi
2:50 am54 °FFog.5 mph94%30.04 "Hg1 mi
2:20 am54 °FPassing clouds.3 mph94%30.04 "HgN/A
1:50 am54 °FClear.6 mph94%30.04 "Hg10 mi
1:20 am54 °FClear.5 mph94%30.04 "Hg10 mi
12:50 am54 °FClear.5 mph88%30.04 "Hg10 mi
12:20 am55 °FPassing clouds.5 mph82%30.04 "HgN/A
11:50 pm
Wed, Aug 16
55 °FClear.6 mph82%30.04 "Hg10 mi
11:20 pm57 °FPassing clouds.6 mph77%30.01 "HgN/A
10:50 pm57 °FPassing clouds.6 mph77%30.01 "HgN/A
10:20 pm59 °FClear.8 mph72%30.01 "Hg10 mi
9:50 pm61 °FClear.9 mph68%30.01 "Hg10 mi
9:20 pm61 °FClear.10 mph68%30.01 "Hg10 mi
8:50 pm63 °FSunny.10 mph59%30.01 "Hg10 mi
8:20 pm64 °FSunny.9 mph52%29.98 "Hg10 mi
7:50 pm66 °FSunny.8 mph49%29.98 "Hg10 mi
7:20 pm66 °FSunny.10 mph49%29.98 "Hg10 mi
6:50 pm68 °FPassing clouds.9 mph43%29.98 "HgN/A
6:20 pm70 °FSunny.9 mph43%29.98 "Hg10 mi
5:50 pm68 °FSunny.10 mph46%29.98 "Hg10 mi
5:20 pm70 °FPassing clouds.9 mph40%29.98 "HgN/A
4:50 pm70 °FPassing clouds.7 mph33%29.95 "HgN/A
4:20 pm70 °FSunny.8 mph35%29.95 "Hg10 mi
3:20 pm68 °FPassing clouds.10 mph40%29.95 "HgN/A
2:50 pm68 °FPassing clouds.8 mph40%29.95 "HgN/A
2:20 pm68 °FPassing clouds.8 mph40%29.95 "HgN/A
1:50 pm66 °FPassing clouds.8 mph40%29.95 "HgN/A
1:20 pm66 °FPassing clouds.8 mph46%29.95 "HgN/A
Weather by CustomWeather, © 2017

See weather overviewHow to use our weather pages